Date String (YYYY-MM-DD hh:mm:ss) UTC,Instrument flags,Ambient pressure (hPa),Sample flow (lpm),Bypass flow (lpm),Sample temperature (°C),Ambient temperature (°C),ASC tube jacket temperature (°C),LED temperature (°C),Box temperature (°C),Sample RH (%),Span deviation,Mass concentration (μg/m³),Mass concentration (μg/m³),Mass concentration (μg/m³)
DateTimeUTC,F1_M11,P_M11,Q1_M11,Q2_M11,T1_M11,T2_M11,T3_M11,T4_M11,T5_M11,U1_M11,ZSPAN_M11,X2_M11,X0_M11,X1_M11
2021-12-19 02:00:00,,0826.4,5.00,0.00,23.8,22.8,00.0,32.8,25.6,07.4,0000.0,0008.79,0020.00,0007.53
2021-12-19 02:01:00,,0826.3,5.01,0.00,23.8,22.8,00.0,32.8,25.6,07.4,0000.0,0008.80,0020.56,0007.56
2021-12-19 02:02:00,,0826.3,4.99,0.00,23.8,22.8,00.0,32.8,25.6,07.4,0000.0,0008.81,0021.20,0007.59
2021-12-19 02:03:00,,0826.3,5.00,0.00,23.8,22.8,00.0,32.8,25.6,07.4,0000.0,0008.89,0020.94,0007.63
2021-12-19 02:04:00,,0826.2,5.01,0.00,23.8,22.8,00.0,32.8,25.5,07.4,0000.0,0009.00,0020.35,0007.69
2021-12-19 02:05:00,,0826.2,5.00,0.00,23.8,22.8,00.0,32.8,25.5,07.5,0000.0,0009.05,0018.86,0007.74
2021-12-19 02:06:00,,0826.2,4.99,0.00,23.8,22.8,00.0,32.8,25.5,07.5,0000.0,0009.07,0018.61,0007.76
2021-12-19 02:07:00,,0826.2,5.00,0.00,23.8,22.8,00.0,32.8,25.5,07.5,0000.0,0009.07,0018.94,0007.75
2021-12-19 02:08:00,,0826.2,5.01,0.00,23.7,22.8,00.0,32.8,25.5,07.5,0000.0,0009.05,0018.99,0007.76
2021-12-19 02:09:00,,0826.3,4.99,0.00,23.7,22.8,00.0,32.8,25.5,07.5,0000.0,0008.98,0018.32,0007.76
2021-12-19 02:10:00,,0826.3,5.01,0.00,23.7,22.8,00.0,32.7,25.5,07.5,0000.0,0008.97,0018.65,0007.76
2021-12-19 02:11:00,,0826.3,4.99,0.00,23.7,22.8,00.0,32.7,25.5,07.5,0001.0,0008.98,0018.94,0007.76
2021-12-19 02:12:00,,0826.3,5.02,0.00,23.7,22.8,00.0,32.7,25.5,07.5,0001.6,0008.98,0018.75,0007.76
2021-12-19 02:13:00,,0826.3,4.99,0.00,23.7,22.7,00.0,32.7,25.5,07.5,0002.6,0008.99,0017.73,0007.77
2021-12-19 02:14:00,,0826.2,5.00,0.00,23.7,22.7,00.0,32.7,25.5,07.5,0001.9,0008.97,0018.00,0007.76
2021-12-19 02:15:00,,0826.2,5.00,0.00,23.7,22.7,00.0,32.7,25.5,07.5,0000.7,0008.86,0017.69,0007.76
2021-12-19 02:16:00,,0826.2,4.99,0.00,23.7,22.7,00.0,32.7,25.5,07.5,0000.5,0008.88,0018.60,0007.77
2021-12-19 02:17:00,,0826.2,5.01,0.00,23.7,22.7,00.0,32.7,25.5,07.5,0000.9,0008.92,0018.40,0007.80
2021-12-19 02:18:00,,0826.2,4.99,0.00,23.7,22.7,00.0,32.7,25.5,07.5,0001.3,0008.91,0018.03,0007.81
2021-12-19 02:19:00,,0826.2,5.02,0.00,23.7,22.7,00.0,32.7,25.5,07.5,0002.0,0008.96,0018.38,0007.80
2021-12-19 02:20:00,,0826.2,4.99,0.00,23.7,22.7,00.0,32.7,25.5,07.5,0002.1,0009.02,0019.09,0007.79
2021-12-19 02:21:00,,0826.3,5.00,0.00,23.7,22.7,00.0,32.6,25.5,07.5,0002.2,0009.01,0019.66,0007.77
2021-12-19 02:22:00,,0826.2,5.00,0.00,23.6,22.7,00.0,32.6,25.5,07.5,0001.8,0008.98,0019.90,0007.74
2021-12-19 02:23:00,,0826.2,5.00,0.00,23.6,22.7,00.0,32.6,25.4,07.5,0001.7,0008.96,0019.93,0007.72
2021-12-19 02:24:00,,0826.2,4.99,0.00,23.6,22.7,00.0,32.6,25.4,07.5,0002.2,0008.99,0020.28,0007.68
2021-12-19 02:25:00,,0826.2,5.00,0.00,23.6,22.7,00.0,32.6,25.4,07.5,0002.3,0009.01,0020.08,0007.66
2021-12-19 02:26:00,,0826.2,5.01,0.00,23.6,22.6,00.0,32.6,25.4,07.5,0001.1,0009.03,0021.22,0007.63
2021-12-19 02:27:00,,0826.2,5.01,0.00,23.6,22.6,00.0,32.6,25.4,07.5,0000.0,0008.98,0020.74,0007.58
2021-12-19 02:28:00,,0826.2,4.99,0.00,23.6,22.6,00.0,32.6,25.4,07.5,0000.0,0008.93,0021.32,0007.55
2021-12-19 02:29:00,,0826.2,5.01,0.00,23.6,22.6,00.0,32.6,25.4,07.5,0000.0,0008.98,0021.56,0007.55
2021-12-19 02:30:00,,0826.2,4.99,0.00,23.6,22.6,00.0,32.6,25.3,07.5,0000.0,0008.99,0021.62,0007.56
2021-12-19 02:31:00,,0826.2,5.01,0.00,23.6,22.6,00.0,32.6,25.3,07.5,0000.0,0008.94,0020.95,0007.55
2021-12-19 02:32:00,,0826.2,5.00,0.00,23.6,22.6,00.0,32.6,25.4,07.5,0003.3,0008.87,0020.50,0007.52
2021-12-19 02:33:00,,0826.2,5.00,0.00,23.6,22.6,00.0,32.6,25.3,07.5,0003.7,0008.87,0019.95,0007.51
2021-12-19 02:34:00,,0826.2,5.00,0.00,23.6,22.6,00.0,32.5,25.3,07.5,0000.2,0008.84,0019.39,0007.49
2021-12-19 02:35:00,,0826.2,5.00,0.00,23.5,22.6,00.0,32.5,25.3,07.5,0000.0,0008.79,0018.55,0007.47
2021-12-19 02:36:00,,0826.2,5.01,0.00,23.5,22.5,00.0,32.5,25.3,07.5,0000.0,0008.71,0018.58,0007.45
2021-12-19 02:37:00,,0826.2,4.99,0.00,23.5,22.5,00.0,32.5,25.3,07.5,0000.0,0008.66,0018.57,0007.42
2021-12-19 02:38:00,,0826.1,5.01,0.00,23.5,22.5,00.0,32.5,25.3,07.5,0000.6,0008.61,0017.77,0007.40
2021-12-19 02:39:00,,0826.2,4.98,0.00,23.5,22.5,00.0,32.5,25.3,07.5,0000.0,0008.55,0016.88,0007.39
2021-12-19 02:40:00,,0826.2,5.01,0.00,23.5,22.5,00.0,32.5,25.3,07.5,0000.0,0008.50,0017.76,0007.36
2021-12-19 02:41:00,,0826.2,5.01,0.00,23.5,22.5,00.0,32.5,25.3,07.5,0000.0,0008.44,0017.67,0007.35
2021-12-19 02:42:00,,0826.2,4.99,0.00,23.5,22.5,00.0,32.5,25.3,07.6,0000.0,0008.44,0018.41,0007.35
2021-12-19 02:43:00,,0826.2,5.01,0.00,23.5,22.5,00.0,32.5,25.2,07.6,0001.4,0008.48,0018.71,0007.36
2021-12-19 02:44:00,,0826.1,5.00,0.00,23.5,22.5,00.0,32.5,25.3,07.6,0002.7,0008.49,0018.98,0007.39
2021-12-19 02:45:00,,0826.2,5.00,0.00,23.5,22.5,00.0,32.5,25.2,07.6,0003.3,0008.49,0018.56,0007.40
2021-12-19 02:46:00,,0826.2,4.99,0.00,23.5,22.5,00.0,32.5,25.2,07.6,0003.3,0008.46,0018.51,0007.41
2021-12-19 02:47:00,,0826.2,5.00,0.00,23.5,22.5,00.0,32.5,25.3,07.6,0003.7,0008.42,0018.40,0007.40
2021-12-19 02:48:00,,0826.2,5.01,0.00,23.5,22.5,00.0,32.4,25.2,07.6,0004.1,0008.43,0018.39,0007.41
2021-12-19 02:49:00,,0826.2,4.99,0.00,23.4,22.4,00.0,32.4,25.2,07.6,0004.3,0008.48,0019.62,0007.43
2021-12-19 02:50:00,,0826.2,5.00,0.00,23.5,22.4,00.0,32.4,25.2,07.6,0003.5,0008.51,0020.08,0007.46
2021-12-19 02:51:00,,0826.2,5.01,0.00,23.4,22.4,00.0,32.4,25.2,07.6,0003.4,0008.54,0019.28,0007.50
2021-12-19 02:52:00,,0826.2,4.99,0.00,23.4,22.4,00.0,32.4,25.2,07.6,0002.9,0008.63,0019.49,0007.54
2021-12-19 02:53:00,,0826.2,5.00,0.00,23.4,22.4,00.0,32.4,25.1,07.6,0003.1,0008.73,0020.01,0007.57
2021-12-19 02:54:00,,0826.2,4.99,0.00,23.4,22.4,00.0,32.4,25.1,07.6,0003.3,0008.79,0020.33,0007.60
2021-12-19 02:55:00,,0826.2,5.01,0.00,23.4,22.4,00.0,32.4,25.2,07.6,0003.9,0008.84,0020.47,0007.62
2021-12-19 02:56:00,,0826.2,4.99,0.00,23.4,22.4,00.0,32.4,25.2,07.6,0004.3,0008.86,0020.50,0007.65
2021-12-19 02:57:00,,0826.2,5.01,0.00,23.4,22.4,00.0,32.4,25.1,07.6,0004.0,0008.91,0020.47,0007.69
2021-12-19 02:58:00,,0826.2,5.00,0.00,23.4,22.4,00.0,32.4,25.1,07.6,0003.6,0008.96,0020.38,0007.73
2021-12-19 02:59:00,,0826.2,4.99,0.00,23.4,22.4,00.0,32.4,25.1,07.6,0003.8,0008.98,0019.71,0007.76
